CZ-6A R/B

Satellite information

Favourite Embed

Satellite Type and Status

ROCKET BODYIN ORBIT

Key statistics

Satellite CZ-6A R/B at a glance.

Uptime

30

Days in orbit

Revolutions

≈ 13.9

Per day

Orbit

LEO

Low Earth Orbit

Inclination

86.5

Latest

Satellite identification and parameters

Extended collection of information and parameters for CZ-6A R/B.

Object identification

Identified? True

Debris? False

Object name: CZ-6A R/B

International designator: 2025-121F

Object number (NORAD): 64288

Object ID (CCSDS): 64288

Country: PEOPLES REPUBLIC OF CHINA (PRC)

Current information (Y/N): Y

RCS size: LARGE

Orbital parameters

Period: 103.298 minutes

Inclination: 86.5098 deg

SMA: 7292.697 km

Apoapsis: 989.919 km

Periapsis: 839.206 km

RAAN: 131.6634 deg

Eccentricy: 0.0103332

Argument of periapsis: 27.2453 deg

Mean anomaly: 333.4088 deg

Mean motion: 13.940247 rev/day

Mean motion (dot): 0.00000017 rev/day2

B* drag term: -0.00000081502 1/REarth

Two-line elements (TLE)

Creation date: July 4, 2025, 10:46 p.m.

Reference frame: TEME

Reference center: EARTH

Epoch: July 4, 2025, 8:09 p.m. UTC

TLE line 0: 0 CZ-6A R/B

TLE line 1: 1 64288U 25121F 25185.83971396 .00000017 00000-0 -81502-6 0 9997

TLE line 2: 2 64288 86.5098 131.6634 0103332 27.2453 333.4088 13.94024700 4042

Live tracking on map

Real-time ground track for satellite CZ-6A R/B.

In-orbit conjunctions

There are no conjunctions computed for CZ-6A R/B, at the moment. Check back to stay up to date, as we update our databases every day.

Go to all conjunctions

Associated space launch

A batch of Low Earth Orbit communication satellites for the Chinese state owned SatNet constellation operated by the China Satellite Network Group. The constellation will eventually consists of 13000 satellites.

CZ-6A R/B was lifted into orbit during the mission ‘Long March 6A | SatNet LEO Group 04’, on board a Long March 6A space rocket.

The launch took place on June 5, 2025, 8:45 p.m. from Launch Complex 9A.

For more information about the launch, click the button.

Launch to space Long March 6A | SatNet LEO Group 04
Long March 6A | SatNet LEO Group 04

Agency: N/A

Status: Launch Successful

Launch date: June 5, 2025, 8:45 p.m. UTC

Rocket: Long March 6A

Launch pad: Launch Complex 9A

Location: Taiyuan Satellite Launch Center, People's Republic of China

...

Latest news about this satellite

News about space launch
China launches fourth group of Guowang megaconstellation satellites

China launched a fourth group of satellites for its Guowang low Earth orbit megaconstellation Thursday, but released few details about the payload or objectives. The post China launches fourth group of Guowang megaconstellation satellites appeared first ...


Newsletter sign-up

Weekly statistics, charts and insights to help you stay on top of the space industry.